Weather History for South Bend, IN

Change the Weather History Date:

Tuesday, January 3, 2012

  Actual Average Record
Temperature  
Mean Temperature 22 °F 25 °F  
Max Temperature 24 °F 32 °F 60 °F (2004)
Min Temperature 19 °F 18 °F -11 °F (1928)
Degree Days  
Heating Degree Days 43 40  
Month to date heating degree days 109 120  
Since 1 July heating degree days 2152 2511  
Cooling Degree Days 0 0  
Month to date cooling degree days 0 0  
Year to date cooling degree days 0 0  
Moisture  
Dew Point 13 °F    
Average Humidity 68    
Maximum Humidity 84    
Minimum Humidity 52    
Precipitation  
Precipitation 0.02 in 0.09 in 1.49 in (1897)
Month to date precipitation 0.49 0.26  
Year to date precipitation 0.49 0.26  
Snow  
Snow 1.20 in 0.60 in 3.60 in (1971)
Month to date snowfall 9.3 1.9  
Since 1 July snowfall 15.0 24.4  
Snow Depth 8.00 in    
Sea Level Pressure  
Sea Level Pressure 30.30 in    
Wind  
Wind Speed 11 mph (WNW)    
Max Wind Speed 22 mph    
Max Gust Speed 26 mph    
Visibility 6 miles    
Events Snow    
T = Trace of Precipitation, MM = Missing Value Source: NWS Daily Summary

Daily Weather History Graph

Daily Weather History Graph

Search for Another Location

Airport:

Trip Planner

Search our weather history database for the weather conditions in past years. The results will help you decide how hot, cold, wet, or windy it might be!

Date:

Astronomy

Jan. 03, 2012 Rise Set
Actual Time 8:12 AM EST 5:26 PM EST
Civil Twilight 7:41 AM EST 5:58 PM EST
Nautical Twilight 7:06 AM EST 6:33 PM EST
Astronomical Twilight 6:32 AM EST 7:06 PM EST
Moon 1:15 PM EST (1/3) 3:01 AM EST (1/3)
Length of Visible Light 10h 17m
Length of Day
9h 14m
Waxing Gibbous, 72% of the Moon is Illuminated
Jan 3
Waxing Gibbous
Jan 9
Full
Jan 16
Last Quarter
Jan 23
New
Jan 30
First Quarter

Hourly Weather History & Observations

Time (EST) Temp. Windchill Dew Point Humidity Pressure Visibility Wind Dir Wind Speed Gust Speed Precip Events Conditions
12:05 AM 21.2 °F 10.9 °F 17.6 °F 86% 30.27 in 1.5 mi NNW 9.2 mph - 0.00 in Snow Light Snow
12:21 AM 21.2 °F 12.6 °F 17.6 °F 86% 30.27 in 3.0 mi NNW 6.9 mph - 0.01 in Snow Light Snow
12:30 AM 21.2 °F 5.6 °F 15.8 °F 80% 30.27 in 9.0 mi NW 20.7 mph 25.3 mph 0.01 in   Overcast
12:45 AM 21.2 °F 8.3 °F 15.8 °F 80% 30.27 in 3.0 mi NNW 13.8 mph 24.2 mph 0.01 in Snow Light Snow
12:49 AM 21.2 °F 8.3 °F 15.8 °F 80% 30.27 in 2.5 mi NW 13.8 mph 24.2 mph 0.01 in Snow Light Snow
12:54 AM 21.0 °F 5.4 °F 15.1 °F 78% 30.31 in 4.0 mi NNW 20.7 mph - 0.01 in Snow Light Snow
12:57 AM 21.2 °F 5.2 °F 15.8 °F 80% 30.27 in 1.8 mi NNW 21.9 mph 26.5 mph 0.00 in Snow Light Snow
1:37 AM 21.2 °F 9.5 °F 17.6 °F 86% 30.29 in 2.5 mi NNW 11.5 mph - 0.00 in Snow Light Snow
1:39 AM 21.2 °F 10.9 °F 17.6 °F 86% 30.29 in 3.0 mi NNW 9.2 mph - 0.00 in Snow Light Snow
1:50 AM 21.2 °F 8.9 °F 15.8 °F 80% 30.29 in 2.5 mi NW 12.7 mph - 0.00 in Snow Light Snow
1:54 AM 21.0 °F 8.6 °F 16.0 °F 81% 30.33 in 2.5 mi NW 12.7 mph - 0.00 in Snow Light Snow
2:05 AM 21.2 °F 7.3 °F 14.0 °F 74% 30.29 in 5.0 mi NW 16.1 mph 23.0 mph 0.00 in Snow Light Snow
2:18 AM 21.2 °F 6.4 °F 14.0 °F 74% 30.29 in 6.0 mi NNW 18.4 mph 23.0 mph 0.00 in Snow Light Snow
2:24 AM 21.2 °F 6.4 °F 15.8 °F 80% 30.30 in 2.5 mi NNW 18.4 mph - 0.00 in Snow Light Snow
2:39 AM 21.2 °F 7.3 °F 15.8 °F 80% 30.30 in 3.0 mi NNW 16.1 mph - 0.00 in Snow Light Snow
2:54 AM 21.0 °F 7.6 °F 15.1 °F 78% 30.34 in 5.0 mi NNW 15.0 mph - 0.00 in Snow Light Snow
3:13 AM 21.2 °F 7.3 °F 15.8 °F 80% 30.31 in 2.5 mi NNW 16.1 mph - 0.00 in Snow Light Snow
3:30 AM 21.2 °F 7.8 °F 15.8 °F 80% 30.31 in 6.0 mi NNW 15.0 mph - 0.00 in Snow Light Snow
3:54 AM 21.0 °F 13.4 °F 16.0 °F 81% 30.35 in 2.5 mi NNW 5.8 mph - 0.00 in Snow Light Snow
4:06 AM 19.4 °F 10.4 °F 15.8 °F 86% 30.31 in 4.0 mi NNW 6.9 mph - 0.00 in Snow Light Snow
4:14 AM 21.2 °F 9.5 °F 15.8 °F 80% 30.31 in 5.0 mi NW 11.5 mph - 0.00 in Snow Light Snow
4:54 AM 21.0 °F 10.6 °F 14.0 °F 74% 30.34 in 7.0 mi NW 9.2 mph - 0.00 in Snow Light Snow
5:54 AM 21.2 °F 10.1 °F 10.4 °F 63% 30.30 in 10.0 mi NW 10.4 mph - N/A   Overcast
6:54 AM 21.0 °F 10.6 °F 10.9 °F 65% 30.35 in 10.0 mi NW 9.2 mph - 0.00 in   Overcast
7:54 AM 21.0 °F 10.6 °F 10.9 °F 65% 30.36 in 10.0 mi NW 9.2 mph - 0.00 in   Overcast
8:54 AM 21.2 °F 10.9 °F 10.4 °F 63% 30.33 in 10.0 mi WNW 9.2 mph - N/A   Overcast
9:54 AM 21.9 °F 11.0 °F 12.9 °F 68% 30.40 in 4.0 mi WNW 10.4 mph - 0.00 in Snow Light Snow
10:54 AM 21.9 °F 10.4 °F 14.0 °F 72% 30.41 in 3.0 mi West 11.5 mph - 0.00 in Snow Light Snow
10:57 AM 21.2 °F 9.5 °F 15.8 °F 80% 30.37 in 1.0 mi West 11.5 mph - 0.00 in Snow Light Snow
11:26 AM 21.2 °F 8.9 °F 15.8 °F 80% 30.36 in 5.0 mi West 12.7 mph - 0.00 in Snow Light Snow
11:54 AM 23.0 °F 11.7 °F 15.1 °F 72% 30.40 in 2.5 mi West 11.5 mph - 0.00 in Snow Light Snow
12:01 PM 23.0 °F 11.1 °F 15.8 °F 74% 30.36 in 4.0 mi WNW 12.7 mph - 0.00 in Snow Light Snow
12:39 PM 21.2 °F 10.9 °F 14.0 °F 74% 30.33 in 5.0 mi West 9.2 mph - 0.00 in Snow Light Snow
12:54 PM 23.0 °F 11.7 °F 14.0 °F 68% 30.36 in 6.0 mi WNW 11.5 mph - 0.00 in Snow Light Snow
1:12 PM 24.8 °F 15.3 °F 12.2 °F 59% 30.32 in 8.0 mi WNW 9.2 mph - 0.00 in Snow Light Snow
1:54 PM 24.1 °F 13.1 °F 12.9 °F 62% 30.34 in 10.0 mi West 11.5 mph - 0.00 in   Mostly Cloudy
2:54 PM 21.9 °F 10.4 °F 12.0 °F 66% 30.34 in 10.0 mi WSW 11.5 mph - N/A   Partly Cloudy
3:54 PM 21.0 °F 9.3 °F 10.9 °F 65% 30.33 in 10.0 mi SW 11.5 mph - N/A   Partly Cloudy
4:54 PM 21.0 °F 11.4 °F 7.0 °F 55% 30.32 in 10.0 mi South 8.1 mph - N/A   Clear
5:54 PM 19.0 °F 11.1 °F 6.1 °F 57% 30.29 in 10.0 mi SSE 5.8 mph - N/A   Clear
6:54 PM 19.4 °F 10.4 °F 6.8 °F 58% 30.23 in 10.0 mi SSE 6.9 mph - N/A   Clear
7:54 PM 19.9 °F 9.3 °F 7.0 °F 57% 30.23 in 10.0 mi South 9.2 mph - N/A   Clear
8:54 PM 21.2 °F 7.8 °F 8.6 °F 58% 30.13 in 10.0 mi South 15.0 mph - N/A   Clear
9:54 PM 21.9 °F 8.7 °F 9.0 °F 58% 30.14 in 10.0 mi South 15.0 mph - N/A   Clear
10:54 PM 21.9 °F 9.8 °F 10.0 °F 60% 30.17 in 10.0 mi South 12.7 mph - N/A   Clear
11:54 PM 21.0 °F 10.6 °F 10.0 °F 63% 30.17 in 10.0 mi South 9.2 mph - N/A   Clear